Time,TemperatureF,DewpointF,PressureIn,WindDirection,WindDirectionDegrees,WindSpeedMPH,WindSpeedGustMPH,Humidity,HourlyPrecipIn,Conditions,Clouds,dailyrainin,SolarRadiationWatts/m^2,SoftwareType,DateUTC
2013-07-05 00:00:00,86.4,72.8,29.54,SE,129,0.0,0.0,64,0.00,,,0.00,0,Wunderground v.1.15,2013-07-05 07:00:00,
2013-07-05 00:08:00,86.1,73.0,29.54,SE,136,0.0,8.0,65,0.00,,,0.00,0,Wunderground v.1.15,2013-07-05 07:08:00,
2013-07-05 00:14:00,86.0,73.3,29.54,SE,136,0.0,0.0,66,0.00,,,0.00,0,Wunderground v.1.15,2013-07-05 07:14:00,
2013-07-05 00:20:00,85.7,73.0,29.55,SE,136,0.0,0.0,66,0.00,,,0.00,0,Wunderground v.1.15,2013-07-05 07:20:00,
2013-07-05 00:25:00,85.4,72.7,29.55,ESE,103,0.0,0.0,66,0.00,,,0.00,0,Wunderground v.1.15,2013-07-05 07:25:00,
2013-07-05 00:30:00,85.0,72.4,29.55,ESE,109,0.0,0.0,66,0.00,,,0.00,0,Wunderground v.1.15,2013-07-05 07:30:00,
2013-07-05 00:36:00,84.9,72.3,29.55,ESE,116,0.0,1.0,66,0.00,,,0.00,0,Wunderground v.1.15,2013-07-05 07:36:00,
2013-07-05 00:41:00,84.8,71.7,29.55,SE,134,0.0,0.0,65,0.00,,,0.00,0,Wunderground v.1.15,2013-07-05 07:41:00,
2013-07-05 00:47:00,84.6,71.5,29.54,SE,133,0.0,3.0,65,0.00,,,0.00,0,Wunderground v.1.15,2013-07-05 07:47:00,
2013-07-05 00:53:00,84.4,71.3,29.54,ESE,120,0.0,2.0,65,0.00,,,0.00,0,Wunderground v.1.15,2013-07-05 07:53:00,
2013-07-05 00:59:00,84.1,71.5,29.55,SE,134,1.0,2.0,66,0.00,,,0.00,0,Wunderground v.1.15,2013-07-05 07:59:00,
2013-07-05 01:04:00,83.8,70.3,29.54,SSE,153,2.0,6.0,64,0.00,,,0.00,0,Wunderground v.1.15,2013-07-05 08:04:00,
2013-07-05 01:10:00,83.6,69.2,29.54,SE,132,5.0,5.0,62,0.00,,,0.00,0,Wunderground v.1.15,2013-07-05 08:10:00,
2013-07-05 01:15:00,83.5,69.6,29.54,ESE,118,4.0,7.0,63,0.00,,,0.00,0,Wunderground v.1.15,2013-07-05 08:15:00,
2013-07-05 01:20:00,83.2,69.3,29.54,SE,127,5.0,5.0,63,0.00,,,0.00,0,Wunderground v.1.15,2013-07-05 08:20:00,
2013-07-05 01:26:00,83.2,68.8,29.54,SE,134,2.0,6.0,62,0.00,,,0.00,0,Wunderground v.1.15,2013-07-05 08:26:00,
2013-07-05 01:31:00,83.2,68.8,29.54,SE,131,3.0,3.0,62,0.00,,,0.00,0,Wunderground v.1.15,2013-07-05 08:31:00,
2013-07-05 01:37:00,83.1,69.2,29.55,SE,127,0.0,3.0,63,0.00,,,0.00,0,Wunderground v.1.15,2013-07-05 08:37:00,
2013-07-05 01:43:00,82.8,68.0,29.55,SE,137,1.0,2.0,61,0.00,,,0.00,0,Wunderground v.1.15,2013-07-05 08:43:00,
2013-07-05 01:49:00,82.5,67.7,29.55,SE,146,2.0,2.0,61,0.00,,,0.00,0,Wunderground v.1.15,2013-07-05 08:49:00,
2013-07-05 01:57:00,82.1,65.9,29.55,SSE,152,2.0,5.0,58,0.00,,,0.00,0,Wunderground v.1.15,2013-07-05 08:57:00,
2013-07-05 02:04:00,81.8,65.6,29.55,ESE,117,5.0,6.0,58,0.00,,,0.00,0,Wunderground v.1.15,2013-07-05 09:04:00,
2013-07-05 02:09:00,81.6,64.9,29.55,SSE,147,1.0,6.0,57,0.00,,,0.00,0,Wunderground v.1.15,2013-07-05 09:09:00,
2013-07-05 02:16:00,81.3,64.6,29.55,SSE,158,0.0,6.0,57,0.00,,,0.00,0,Wunderground v.1.15,2013-07-05 09:16:00,
2013-07-05 02:22:00,81.1,64.4,29.55,SE,141,1.0,4.0,57,0.00,,,0.00,0,Wunderground v.1.15,2013-07-05 09:22:00,
2013-07-05 02:28:00,80.9,63.7,29.55,ESE,123,6.0,6.0,56,0.00,,,0.00,0,Wunderground v.1.15,2013-07-05 09:28:00,
2013-07-05 02:33:00,80.8,63.1,29.55,SE,132,2.0,3.0,55,0.00,,,0.00,0,Wunderground v.1.15,2013-07-05 09:33:00,
2013-07-05 02:38:00,80.7,63.0,29.55,SE,138,0.0,4.0,55,0.00,,,0.00,0,Wunderground v.1.15,2013-07-05 09:38:00,
2013-07-05 02:44:00,80.5,62.8,29.55,ESE,117,3.0,5.0,55,0.00,,,0.00,0,Wunderground v.1.15,2013-07-05 09:44:00,
2013-07-05 02:52:00,80.4,62.8,29.55,SSE,150,1.0,2.0,55,0.00,,,0.00,0,Wunderground v.1.15,2013-07-05 09:52:00,
2013-07-05 02:57:00,80.1,62.0,29.55,ESE,119,0.0,2.0,54,0.00,,,0.00,0,Wunderground v.1.15,2013-07-05 09:57:00,
2013-07-05 03:03:00,80.0,62.4,29.56,SE,126,0.0,6.0,55,0.00,,,0.00,0,Wunderground v.1.15,2013-07-05 10:03:00,
2013-07-05 03:09:00,79.8,62.2,29.56,SE,128,0.0,6.0,55,0.00,,,0.00,0,Wunderground v.1.15,2013-07-05 10:09:00,
2013-07-05 03:14:00,79.6,62.0,29.56,SSE,147,2.0,2.0,55,0.00,,,0.00,0,Wunderground v.1.15,2013-07-05 10:14:00,
2013-07-05 03:20:00,79.3,61.2,29.56,SSE,149,0.0,0.0,54,0.00,,,0.00,0,Wunderground v.1.15,2013-07-05 10:20:00,
2013-07-05 03:27:00,78.7,61.2,29.56,SE,130,1.0,1.0,55,0.00,,,0.00,0,Wunderground v.1.15,2013-07-05 10:27:00,
2013-07-05 03:33:00,78.2,60.7,29.56,SE,146,1.0,2.0,55,0.00,,,0.00,0,Wunderground v.1.15,2013-07-05 10:33:00,
2013-07-05 03:40:00,77.7,60.8,29.56,SE,137,1.0,1.0,56,0.00,,,0.00,0,Wunderground v.1.15,2013-07-05 10:40:00,
2013-07-05 03:46:00,77.3,59.9,29.56,SSE,158,1.0,3.0,55,0.00,,,0.00,0,Wunderground v.1.15,2013-07-05 10:46:00,
2013-07-05 03:51:00,77.1,59.7,29.56,SE,132,2.0,2.0,55,0.00,,,0.00,0,Wunderground v.1.15,2013-07-05 10:51:00,
2013-07-05 03:56:00,76.8,59.9,29.56,SE,146,0.0,2.0,56,0.00,,,0.00,0,Wunderground v.1.15,2013-07-05 10:56:00,
2013-07-05 04:02:00,76.5,59.6,29.56,SE,146,0.0,7.0,56,0.00,,,0.00,0,Wunderground v.1.15,2013-07-05 11:02:00,
2013-07-05 04:08:00,76.3,59.4,29.57,ESE,123,0.0,7.0,56,0.00,,,0.00,0,Wunderground v.1.15,2013-07-05 11:08:00,
2013-07-05 04:14:00,76.0,58.7,29.57,SE,129,1.0,2.0,55,0.00,,,0.00,0,Wunderground v.1.15,2013-07-05 11:14:00,
2013-07-05 04:21:00,75.7,57.9,29.57,SE,135,3.0,3.0,54,0.00,,,0.00,0,Wunderground v.1.15,2013-07-05 11:21:00,
2013-07-05 04:27:00,75.3,57.5,29.56,SE,139,3.0,3.0,54,0.00,,,0.00,0,Wunderground v.1.15,2013-07-05 11:27:00,
2013-07-05 04:34:00,74.9,57.6,29.57,SSE,159,1.0,3.0,55,0.00,,,0.00,0,Wunderground v.1.15,2013-07-05 11:34:00,
2013-07-05 04:40:00,74.6,56.9,29.56,ESE,116,2.0,2.0,54,0.00,,,0.00,0,Wunderground v.1.15,2013-07-05 11:40:00,
2013-07-05 04:45:00,74.4,56.7,29.56,SSE,166,1.0,3.0,54,0.00,,,0.00,0,Wunderground v.1.15,2013-07-05 11:45:00,
2013-07-05 04:51:00,74.3,56.6,29.57,SE,141,0.0,1.0,54,0.00,,,0.00,0,Wunderground v.1.15,2013-07-05 11:51:00,
2013-07-05 04:58:00,74.1,56.9,29.56,SE,124,3.0,3.0,55,0.00,,,0.00,0,Wunderground v.1.15,2013-07-05 11:58:00,
2013-07-05 05:04:00,73.9,56.7,29.56,SSE,150,2.0,6.0,55,0.00,,,0.00,0,Wunderground v.1.15,2013-07-05 12:04:00,
2013-07-05 05:09:00,73.7,56.0,29.56,SE,132,0.0,6.0,54,0.00,,,0.00,0,Wunderground v.1.15,2013-07-05 12:09:00,
2013-07-05 05:15:00,73.6,55.9,29.57,SE,145,0.0,3.0,54,0.00,,,0.00,0,Wunderground v.1.15,2013-07-05 12:15:00,
2013-07-05 05:20:00,73.5,55.3,29.57,ESE,108,0.0,0.0,53,0.00,,,0.00,0,Wunderground v.1.15,2013-07-05 12:20:00,
2013-07-05 05:25:00,73.5,56.3,29.57,ESE,121,0.0,1.0,55,0.00,,,0.00,0,Wunderground v.1.15,2013-07-05 12:25:00,
2013-07-05 05:31:00,73.3,56.2,29.58,ESE,120,0.0,0.0,55,0.00,,,0.00,0,Wunderground v.1.15,2013-07-05 12:31:00,
2013-07-05 05:36:00,73.0,55.9,29.57,SE,140,1.0,3.0,55,0.00,,,0.00,0,Wunderground v.1.15,2013-07-05 12:36:00,
2013-07-05 05:42:00,72.5,54.4,29.58,SE,135,1.0,4.0,53,0.00,,,0.00,0,Wunderground v.1.15,2013-07-05 12:42:00,
2013-07-05 05:48:00,72.2,54.1,29.58,SSE,150,3.0,6.0,53,0.00,,,0.00,0,Wunderground v.1.15,2013-07-05 12:48:00,
2013-07-05 05:54:00,72.0,54.4,29.58,SE,129,6.0,6.0,54,0.00,,,0.00,0,Wunderground v.1.15,2013-07-05 12:54:00,
2013-07-05 05:59:00,71.9,54.3,29.58,ESE,120,11.0,11.0,54,0.00,,,0.00,0,Wunderground v.1.15,2013-07-05 12:59:00,
2013-07-05 06:04:00,71.7,54.2,29.58,SE,134,5.0,9.0,54,0.00,,,0.00,0,Wunderground v.1.15,2013-07-05 13:04:00,
2013-07-05 06:10:00,71.6,54.1,29.58,SE,135,3.0,3.0,54,0.00,,,0.00,0,Wunderground v.1.15,2013-07-05 13:10:00,
2013-07-05 06:16:00,71.7,53.7,29.58,SE,128,9.0,12.0,53,0.00,,,0.00,0,Wunderground v.1.15,2013-07-05 13:16:00,
2013-07-05 06:22:00,71.7,53.7,29.59,SE,129,3.0,8.0,53,0.00,,,0.00,0,Wunderground v.1.15,2013-07-05 13:22:00,
2013-07-05 06:28:00,71.6,54.1,29.59,SE,124,3.0,8.0,54,0.00,,,0.00,0,Wunderground v.1.15,2013-07-05 13:28:00,
2013-07-05 06:34:00,71.5,54.0,29.59,ESE,117,3.0,10.0,54,0.00,,,0.00,0,Wunderground v.1.15,2013-07-05 13:34:00,
2013-07-05 06:40:00,71.4,54.4,29.59,SE,133,1.0,1.0,55,0.00,,,0.00,0,Wunderground v.1.15,2013-07-05 13:40:00,
2013-07-05 06:46:00,71.2,54.2,29.59,SE,124,3.0,4.0,55,0.00,,,0.00,0,Wunderground v.1.15,2013-07-05 13:46:00,
2013-07-05 06:51:00,71.2,54.7,29.59,SE,125,3.0,3.0,56,0.00,,,0.00,0,Wunderground v.1.15,2013-07-05 13:51:00,
2013-07-05 06:57:00,71.0,54.5,29.59,SSE,148,3.0,12.0,56,0.00,,,0.00,0,Wunderground v.1.15,2013-07-05 13:57:00,
2013-07-05 07:02:00,71.1,54.6,29.60,SE,131,7.0,11.0,56,0.00,,,0.00,0,Wunderground v.1.15,2013-07-05 14:02:00,
2013-07-05 07:08:00,71.1,55.6,29.60,ESE,116,3.0,11.0,58,0.00,,,0.00,0,Wunderground v.1.15,2013-07-05 14:08:00,
2013-07-05 07:14:00,71.2,55.2,29.60,SE,136,3.0,4.0,57,0.00,,,0.00,0,Wunderground v.1.15,2013-07-05 14:14:00,
2013-07-05 07:20:00,71.3,56.2,29.61,SE,137,1.0,1.0,59,0.00,,,0.00,0,Wunderground v.1.15,2013-07-05 14:20:00,
2013-07-05 07:26:00,71.3,55.8,29.61,SSE,166,1.0,3.0,58,0.00,,,0.00,0,Wunderground v.1.15,2013-07-05 14:26:00,
2013-07-05 07:35:00,71.4,57.2,29.61,SE,130,3.0,4.0,61,0.00,,,0.00,0,Wunderground v.1.15,2013-07-05 14:35:00,
2013-07-05 07:41:00,71.4,56.8,29.61,SE,132,3.0,4.0,60,0.00,,,0.00,0,Wunderground v.1.15,2013-07-05 14:41:00,
2013-07-05 07:47:00,71.6,56.5,29.62,SE,142,1.0,10.0,59,0.00,,,0.00,0,Wunderground v.1.15,2013-07-05 14:47:00,
2013-07-05 07:53:00,71.8,57.2,29.62,ESE,122,0.0,4.0,60,0.00,,,0.00,0,Wunderground v.1.15,2013-07-05 14:53:00,
2013-07-05 07:59:00,72.1,57.4,29.62,ESE,120,3.0,6.0,60,0.00,,,0.00,0,Wunderground v.1.15,2013-07-05 14:59:00,
2013-07-05 08:08:00,72.5,58.3,29.63,SSE,148,2.0,13.0,61,0.00,,,0.00,0,Wunderground v.1.15,2013-07-05 15:08:00,
2013-07-05 08:15:00,72.8,58.1,29.63,SE,131,3.0,6.0,60,0.00,,,0.00,0,Wunderground v.1.15,2013-07-05 15:15:00,
2013-07-05 08:22:00,73.0,57.8,29.62,SSE,155,2.0,4.0,59,0.00,,,0.00,0,Wunderground v.1.15,2013-07-05 15:22:00,
2013-07-05 08:28:00,73.2,58.5,29.63,ESE,115,5.0,7.0,60,0.00,,,0.00,0,Wunderground v.1.15,2013-07-05 15:28:00,
2013-07-05 08:32:00,73.4,58.7,29.63,ESE,107,2.0,6.0,60,0.00,,,0.00,0,Wunderground v.1.15,2013-07-05 15:32:00,
2013-07-05 08:37:00,73.7,58.9,29.63,SSE,166,2.0,6.0,60,0.00,,,0.00,0,Wunderground v.1.15,2013-07-05 15:37:00,
2013-07-05 08:43:00,74.1,58.4,29.64,SSE,151,2.0,9.0,58,0.00,,,0.00,0,Wunderground v.1.15,2013-07-05 15:43:00,
2013-07-05 08:49:00,74.2,59.4,29.64,ESE,123,1.0,9.0,60,0.00,,,0.00,0,Wunderground v.1.15,2013-07-05 15:49:00,
2013-07-05 08:51:00,74.3,59.5,29.63,SE,144,2.0,2.0,60,0.00,,,0.00,0,Wunderground v.1.15,2013-07-05 15:51:00,
2013-07-05 08:57:00,74.8,60.0,29.63,SE,131,4.0,4.0,60,0.00,,,0.00,0,Wunderground v.1.15,2013-07-05 15:57:00,
2013-07-05 09:03:00,75.0,58.7,29.64,SE,146,1.0,10.0,57,0.00,,,0.00,0,Wunderground v.1.15,2013-07-05 16:03:00,
2013-07-05 09:08:00,75.1,58.8,29.64,SSE,150,2.0,10.0,57,0.00,,,0.00,0,Wunderground v.1.15,2013-07-05 16:08:00,
2013-07-05 09:14:00,75.5,59.2,29.64,ESE,117,2.0,4.0,57,0.00,,,0.00,0,Wunderground v.1.15,2013-07-05 16:14:00,
2013-07-05 09:19:00,75.7,59.9,29.64,SE,143,2.0,6.0,58,0.00,,,0.00,0,Wunderground v.1.15,2013-07-05 16:19:00,
2013-07-05 09:24:00,75.9,59.1,29.64,SE,140,2.0,3.0,56,0.00,,,0.00,0,Wunderground v.1.15,2013-07-05 16:24:00,
2013-07-05 09:30:00,76.2,59.4,29.64,SE,140,4.0,4.0,56,0.00,,,0.00,0,Wunderground v.1.15,2013-07-05 16:30:00,
2013-07-05 09:36:00,76.6,60.7,29.64,SE,138,1.0,4.0,58,0.00,,,0.00,0,Wunderground v.1.15,2013-07-05 16:36:00,
2013-07-05 09:37:00,76.6,59.7,29.64,SSE,155,0.0,4.0,56,0.00,,,0.00,0,Wunderground v.1.15,2013-07-05 16:37:00,
2013-07-05 09:43:00,77.0,60.1,29.64,SSE,153,1.0,9.0,56,0.00,,,0.00,0,Wunderground v.1.15,2013-07-05 16:43:00,
2013-07-05 09:49:00,77.4,60.0,29.64,SE,130,4.0,9.0,55,0.00,,,0.00,0,Wunderground v.1.15,2013-07-05 16:49:00,
2013-07-05 09:55:00,77.6,60.7,29.64,SSE,147,2.0,4.0,56,0.00,,,0.00,0,Wunderground v.1.15,2013-07-05 16:55:00,
2013-07-05 10:00:00,77.8,61.8,29.64,SE,140,1.0,1.0,58,0.00,,,0.00,0,Wunderground v.1.15,2013-07-05 17:00:00,
2013-07-05 10:08:00,78.1,61.6,29.64,ESE,115,2.0,10.0,57,0.00,,,0.00,0,Wunderground v.1.15,2013-07-05 17:08:00,
2013-07-05 10:13:00,78.2,60.7,29.64,SE,129,8.0,8.0,55,0.00,,,0.00,0,Wunderground v.1.15,2013-07-05 17:13:00,
2013-07-05 10:19:00,78.5,61.0,29.64,South,173,2.0,8.0,55,0.00,,,0.00,0,Wunderground v.1.15,2013-07-05 17:19:00,
2013-07-05 10:25:00,78.8,61.3,29.64,SE,142,1.0,3.0,55,0.00,,,0.00,0,Wunderground v.1.15,2013-07-05 17:25:00,
2013-07-05 10:31:00,79.0,61.5,29.64,SSE,157,3.0,3.0,55,0.00,,,0.00,0,Wunderground v.1.15,2013-07-05 17:31:00,
2013-07-05 10:36:00,79.2,61.1,29.64,SSE,161,2.0,4.0,54,0.00,,,0.00,0,Wunderground v.1.15,2013-07-05 17:36:00,
2013-07-05 10:42:00,79.4,61.3,29.64,SE,131,4.0,4.0,54,0.00,,,0.00,0,Wunderground v.1.15,2013-07-05 17:42:00,
2013-07-05 10:47:00,79.8,62.2,29.64,SSE,151,1.0,4.0,55,0.00,,,0.00,0,Wunderground v.1.15,2013-07-05 17:47:00,
2013-07-05 10:52:00,80.2,61.5,29.64,SSE,162,2.0,5.0,53,0.00,,,0.00,0,Wunderground v.1.15,2013-07-05 17:52:00,
2013-07-05 10:58:00,80.4,60.6,29.64,SSE,160,3.0,5.0,51,0.00,,,0.00,0,Wunderground v.1.15,2013-07-05 17:58:00,
2013-07-05 11:04:00,80.5,60.1,29.63,SSE,157,3.0,9.0,50,0.00,,,0.00,0,Wunderground v.1.15,2013-07-05 18:04:00,
2013-07-05 11:09:00,80.7,62.0,29.64,SSE,155,3.0,9.0,53,0.00,,,0.00,0,Wunderground v.1.15,2013-07-05 18:09:00,
2013-07-05 11:14:00,81.0,61.7,29.64,SE,137,0.0,4.0,52,0.00,,,0.00,0,Wunderground v.1.15,2013-07-05 18:14:00,
2013-07-05 11:20:00,81.4,63.7,29.64,ESE,118,1.0,1.0,55,0.00,,,0.00,0,Wunderground v.1.15,2013-07-05 18:20:00,
2013-07-05 11:25:00,81.7,63.4,29.64,SE,144,2.0,2.0,54,0.00,,,0.00,0,Wunderground v.1.15,2013-07-05 18:25:00,
2013-07-05 11:31:00,81.8,62.5,29.64,SSE,151,1.0,1.0,52,0.00,,,0.00,0,Wunderground v.1.15,2013-07-05 18:31:00,
2013-07-05 11:36:00,82.0,60.4,29.63,SE,127,3.0,3.0,48,0.00,,,0.00,0,Wunderground v.1.15,2013-07-05 18:36:00,
2013-07-05 11:42:00,82.1,63.8,29.64,SE,140,1.0,2.0,54,0.00,,,0.00,0,Wunderground v.1.15,2013-07-05 18:42:00,
2013-07-05 11:47:00,82.4,62.5,29.63,SSE,158,3.0,4.0,51,0.00,,,0.00,0,Wunderground v.1.15,2013-07-05 18:47:00,
2013-07-05 11:53:00,82.7,65.4,29.64,ESE,113,2.0,2.0,56,0.00,,,0.00,0,Wunderground v.1.15,2013-07-05 18:53:00,
2013-07-05 11:59:00,83.0,63.0,29.64,SE,124,0.0,4.0,51,0.00,,,0.00,0,Wunderground v.1.15,2013-07-05 18:59:00,
2013-07-05 12:04:00,83.4,60.4,29.63,SSE,157,1.0,7.0,46,0.00,,,0.00,0,Wunderground v.1.15,2013-07-05 19:04:00,
2013-07-05 12:09:00,83.7,65.8,29.64,SE,137,2.0,7.0,55,0.00,,,0.00,0,Wunderground v.1.15,2013-07-05 19:09:00,
2013-07-05 12:15:00,84.2,63.0,29.64,SE,144,5.0,5.0,49,0.00,,,0.00,0,Wunderground v.1.15,2013-07-05 19:15:00,
2013-07-05 12:20:00,84.5,63.2,29.64,SSE,152,0.0,0.0,49,0.00,,,0.00,0,Wunderground v.1.15,2013-07-05 19:20:00,
2013-07-05 12:26:00,84.9,65.9,29.64,SSE,151,3.0,3.0,53,0.00,,,0.00,0,Wunderground v.1.15,2013-07-05 19:26:00,
2013-07-05 12:31:00,85.5,64.7,29.64,SSW,203,1.0,5.0,50,0.00,,,0.00,0,Wunderground v.1.15,2013-07-05 19:31:00,
2013-07-05 12:37:00,85.8,65.6,29.63,SSE,154,1.0,5.0,51,0.00,,,0.00,0,Wunderground v.1.15,2013-07-05 19:37:00,
2013-07-05 12:43:00,86.7,64.7,29.63,SSE,158,2.0,2.0,48,0.00,,,0.00,0,Wunderground v.1.15,2013-07-05 19:43:00,
2013-07-05 12:49:00,87.0,65.5,29.63,SSE,152,1.0,2.0,49,0.00,,,0.00,0,Wunderground v.1.15,2013-07-05 19:49:00,
2013-07-05 12:54:00,87.2,65.7,29.63,SSE,160,3.0,3.0,49,0.00,,,0.00,0,Wunderground v.1.15,2013-07-05 19:54:00,
2013-07-05 12:59:00,87.5,64.2,29.63,SSE,147,1.0,3.0,46,0.00,,,0.00,0,Wunderground v.1.15,2013-07-05 19:59:00,
2013-07-05 13:07:00,88.2,66.6,29.63,SSE,147,0.0,8.0,49,0.00,,,0.00,0,Wunderground v.1.15,2013-07-05 20:07:00,
2013-07-05 13:13:00,88.9,66.7,29.63,WSW,242,4.0,4.0,48,0.00,,,0.00,0,Wunderground v.1.15,2013-07-05 20:13:00,
2013-07-05 13:15:00,89.3,68.2,29.63,SSE,165,0.0,4.0,50,0.00,,,0.00,0,Wunderground v.1.15,2013-07-05 20:15:00,
2013-07-05 13:20:00,89.6,66.7,29.63,SW,216,4.0,4.0,47,0.00,,,0.00,0,Wunderground v.1.15,2013-07-05 20:20:00,
2013-07-05 13:26:00,90.1,68.4,29.63,SW,217,1.0,4.0,49,0.00,,,0.00,0,Wunderground v.1.15,2013-07-05 20:26:00,
2013-07-05 13:31:00,90.6,65.7,29.63,South,190,1.0,1.0,44,0.00,,,0.00,0,Wunderground v.1.15,2013-07-05 20:31:00,
2013-07-05 13:37:00,90.8,66.5,29.63,SW,218,1.0,5.0,45,0.00,,,0.00,0,Wunderground v.1.15,2013-07-05 20:37:00,
2013-07-05 13:43:00,91.3,66.3,29.62,SW,233,1.0,3.0,44,0.00,,,0.00,0,Wunderground v.1.15,2013-07-05 20:43:00,
2013-07-05 13:49:00,91.5,69.0,29.62,WSW,248,2.0,3.0,48,0.00,,,0.00,0,Wunderground v.1.15,2013-07-05 20:49:00,
2013-07-05 13:54:00,91.6,66.6,29.62,SSW,198,2.0,3.0,44,0.00,,,0.00,0,Wunderground v.1.15,2013-07-05 20:54:00,
2013-07-05 14:00:00,91.8,66.8,29.62,SE,140,1.0,1.0,44,0.00,,,0.00,0,Wunderground v.1.15,2013-07-05 21:00:00,
2013-07-05 14:08:00,92.4,66.0,29.62,SW,227,3.0,7.0,42,0.00,,,0.00,0,Wunderground v.1.15,2013-07-05 21:08:00,
2013-07-05 14:13:00,92.9,65.0,29.62,WSW,247,3.0,3.0,40,0.00,,,0.00,0,Wunderground v.1.15,2013-07-05 21:13:00,
2013-07-05 14:19:00,93.4,66.2,29.62,SW,218,0.0,3.0,41,0.00,,,0.00,0,Wunderground v.1.15,2013-07-05 21:19:00,
2013-07-05 14:25:00,94.0,66.0,29.62,South,182,2.0,2.0,40,0.00,,,0.00,0,Wunderground v.1.15,2013-07-05 21:25:00,
2013-07-05 14:31:00,94.2,65.4,29.62,SE,127,2.0,2.0,39,0.00,,,0.00,0,Wunderground v.1.15,2013-07-05 21:31:00,
2013-07-05 14:36:00,94.1,67.5,29.61,SSW,209,1.0,3.0,42,0.00,,,0.00,0,Wunderground v.1.15,2013-07-05 21:36:00,
2013-07-05 14:42:00,94.4,66.4,29.61,SSE,150,1.0,1.0,40,0.00,,,0.00,0,Wunderground v.1.15,2013-07-05 21:42:00,
2013-07-05 14:48:00,94.9,67.5,29.61,SSE,157,1.0,1.0,41,0.00,,,0.00,0,Wunderground v.1.15,2013-07-05 21:48:00,
2013-07-05 14:54:00,95.1,67.0,29.60,SE,145,2.0,2.0,40,0.00,,,0.00,0,Wunderground v.1.15,2013-07-05 21:54:00,
2013-07-05 14:59:00,95.6,68.8,29.60,SSW,206,2.0,5.0,42,0.00,,,0.00,0,Wunderground v.1.15,2013-07-05 21:59:00,
2013-07-05 15:08:00,95.8,68.3,29.60,East,86,2.0,8.0,41,0.00,,,0.00,0,Wunderground v.1.15,2013-07-05 22:08:00,
2013-07-05 15:13:00,95.4,67.2,29.60,SSE,154,3.0,3.0,40,0.00,,,0.00,0,Wunderground v.1.15,2013-07-05 22:13:00,
2013-07-05 15:19:00,95.0,68.3,29.59,SSE,151,2.0,3.0,42,0.00,,,0.00,0,Wunderground v.1.15,2013-07-05 22:19:00,
2013-07-05 15:20:00,95.0,67.6,29.59,SSE,160,2.0,2.0,41,0.00,,,0.00,0,Wunderground v.1.15,2013-07-05 22:20:00,
2013-07-05 15:25:00,95.3,66.4,29.59,SSE,155,4.0,4.0,39,0.00,,,0.00,0,Wunderground v.1.15,2013-07-05 22:25:00,
2013-07-05 15:31:00,95.2,66.3,29.59,ESE,120,1.0,1.0,39,0.00,,,0.00,0,Wunderground v.1.15,2013-07-05 22:31:00,
2013-07-05 15:36:00,95.3,69.3,29.59,South,173,0.0,2.0,43,0.00,,,0.00,0,Wunderground v.1.15,2013-07-05 22:36:00,
2013-07-05 15:42:00,95.2,67.8,29.59,SSE,168,1.0,2.0,41,0.00,,,0.00,0,Wunderground v.1.15,2013-07-05 22:42:00,
2013-07-05 15:48:00,94.6,68.0,29.58,SE,138,3.0,4.0,42,0.00,,,0.00,0,Wunderground v.1.15,2013-07-05 22:48:00,
2013-07-05 15:53:00,94.6,64.3,29.58,SE,126,0.0,2.0,37,0.00,,,0.00,0,Wunderground v.1.15,2013-07-05 22:53:00,
2013-07-05 15:58:00,94.5,67.2,29.58,SE,145,1.0,4.0,41,0.00,,,0.00,0,Wunderground v.1.15,2013-07-05 22:58:00,
2013-07-05 16:04:00,94.3,64.8,29.58,ESE,105,5.0,8.0,38,0.00,,,0.00,0,Wunderground v.1.15,2013-07-05 23:04:00,
2013-07-05 16:10:00,94.0,66.0,29.58,SSE,148,3.0,3.0,40,0.00,,,0.00,0,Wunderground v.1.15,2013-07-05 23:10:00,
2013-07-05 16:15:00,94.4,67.1,29.57,SW,236,1.0,3.0,41,0.00,,,0.00,0,Wunderground v.1.15,2013-07-05 23:15:00,
2013-07-05 16:21:00,94.8,66.7,29.57,South,170,0.0,0.0,40,0.00,,,0.00,0,Wunderground v.1.15,2013-07-05 23:21:00,
2013-07-05 16:23:00,95.0,68.3,29.57,South,171,1.0,1.0,42,0.00,,,0.00,0,Wunderground v.1.15,2013-07-05 23:23:00,
2013-07-05 16:29:00,95.0,66.2,29.57,SSE,154,3.0,4.0,39,0.00,,,0.00,0,Wunderground v.1.15,2013-07-05 23:29:00,
2013-07-05 16:35:00,94.5,66.4,29.57,SSW,195,0.0,4.0,40,0.00,,,0.00,0,Wunderground v.1.15,2013-07-05 23:35:00,
2013-07-05 16:41:00,94.1,65.4,29.57,SSE,149,2.0,2.0,39,0.00,,,0.00,0,Wunderground v.1.15,2013-07-05 23:41:00,
2013-07-05 16:46:00,94.0,66.7,29.56,SSE,149,0.0,2.0,41,0.00,,,0.00,0,Wunderground v.1.15,2013-07-05 23:46:00,
2013-07-05 16:52:00,93.9,65.2,29.56,South,170,0.0,0.0,39,0.00,,,0.00,0,Wunderground v.1.15,2013-07-05 23:52:00,
2013-07-05 16:58:00,93.7,65.7,29.56,SSE,164,2.0,3.0,40,0.00,,,0.00,0,Wunderground v.1.15,2013-07-05 23:58:00,
2013-07-05 17:04:00,94.1,67.5,29.56,SSE,152,1.0,7.0,42,0.00,,,0.00,0,Wunderground v.1.15,2013-07-06 00:04:00,
2013-07-05 17:09:00,94.0,66.0,29.56,SE,142,0.0,7.0,40,0.00,,,0.00,0,Wunderground v.1.15,2013-07-06 00:09:00,
2013-07-05 17:15:00,93.5,65.6,29.56,SSE,153,3.0,4.0,40,0.00,,,0.00,0,Wunderground v.1.15,2013-07-06 00:15:00,
2013-07-05 17:20:00,93.2,65.3,29.56,South,177,1.0,1.0,40,0.00,,,0.00,0,Wunderground v.1.15,2013-07-06 00:20:00,
2013-07-05 17:25:00,93.1,64.5,29.56,SSE,148,2.0,2.0,39,0.00,,,0.00,0,Wunderground v.1.15,2013-07-06 00:25:00,
2013-07-05 17:31:00,93.2,65.3,29.56,SE,136,1.0,1.0,40,0.00,,,0.00,0,Wunderground v.1.15,2013-07-06 00:31:00,
2013-07-05 17:37:00,92.9,65.0,29.56,SSE,152,0.0,3.0,40,0.00,,,0.00,0,Wunderground v.1.15,2013-07-06 00:37:00,
2013-07-05 17:43:00,92.8,63.5,29.56,South,189,1.0,2.0,38,0.00,,,0.00,0,Wunderground v.1.15,2013-07-06 00:43:00,
2013-07-05 17:49:00,92.7,63.4,29.56,South,173,1.0,2.0,38,0.00,,,0.00,0,Wunderground v.1.15,2013-07-06 00:49:00,
2013-07-05 17:54:00,92.5,64.7,29.56,SSE,161,0.0,1.0,40,0.00,,,0.00,0,Wunderground v.1.15,2013-07-06 00:54:00,
2013-07-05 17:59:00,92.3,65.2,29.56,SSE,150,0.0,2.0,41,0.00,,,0.00,0,Wunderground v.1.15,2013-07-06 00:59:00,
2013-07-05 18:08:00,91.9,64.1,29.56,SSE,158,2.0,7.0,40,0.00,,,0.00,0,Wunderground v.1.15,2013-07-06 01:08:00,
2013-07-05 18:13:00,91.6,64.6,29.56,SSE,166,0.0,2.0,41,0.00,,,0.00,0,Wunderground v.1.15,2013-07-06 01:13:00,
2013-07-05 18:18:00,91.2,64.9,29.55,SSE,147,2.0,2.0,42,0.00,,,0.00,0,Wunderground v.1.15,2013-07-06 01:18:00,
2013-07-05 18:20:00,91.1,64.1,29.55,SSE,148,0.0,0.0,41,0.00,,,0.00,0,Wunderground v.1.15,2013-07-06 01:20:00,
2013-07-05 18:26:00,90.9,63.9,29.55,SSE,168,1.0,1.0,41,0.00,,,0.00,0,Wunderground v.1.15,2013-07-06 01:26:00,
2013-07-05 18:32:00,90.7,63.8,29.55,SSE,155,0.0,1.0,41,0.00,,,0.00,0,Wunderground v.1.15,2013-07-06 01:32:00,
2013-07-05 18:37:00,90.5,62.9,29.55,SSE,156,2.0,2.0,40,0.00,,,0.00,0,Wunderground v.1.15,2013-07-06 01:37:00,
2013-07-05 18:43:00,90.3,64.1,29.55,SSE,154,0.0,1.0,42,0.00,,,0.00,0,Wunderground v.1.15,2013-07-06 01:43:00,
2013-07-05 18:49:00,89.9,64.4,29.55,ESE,123,0.0,4.0,43,0.00,,,0.00,0,Wunderground v.1.15,2013-07-06 01:49:00,
2013-07-05 18:55:00,89.7,66.8,29.55,ESE,123,0.0,1.0,47,0.00,,,0.00,0,Wunderground v.1.15,2013-07-06 01:55:00,
2013-07-05 19:00:00,89.4,66.5,29.56,ESE,103,0.0,0.0,47,0.00,,,0.00,0,Wunderground v.1.15,2013-07-06 02:00:00,
2013-07-05 19:08:00,89.0,66.8,29.56,SSE,152,1.0,6.0,48,0.00,,,0.00,0,Wunderground v.1.15,2013-07-06 02:08:00,
2013-07-05 19:13:00,88.4,66.2,29.56,SE,146,1.0,3.0,48,0.00,,,0.00,0,Wunderground v.1.15,2013-07-06 02:13:00,
2013-07-05 19:19:00,88.0,65.8,29.56,SSE,147,1.0,3.0,48,0.00,,,0.00,0,Wunderground v.1.15,2013-07-06 02:19:00,
2013-07-05 19:25:00,87.6,66.1,29.56,SE,142,2.0,2.0,49,0.00,,,0.00,0,Wunderground v.1.15,2013-07-06 02:25:00,
2013-07-05 19:31:00,87.2,66.3,29.56,SSE,151,1.0,1.0,50,0.00,,,0.00,0,Wunderground v.1.15,2013-07-06 02:31:00,
2013-07-05 19:37:00,86.8,66.5,29.56,SSE,155,0.0,1.0,51,0.00,,,0.00,0,Wunderground v.1.15,2013-07-06 02:37:00,
2013-07-05 19:43:00,86.3,66.0,29.56,SSE,155,2.0,2.0,51,0.00,,,0.00,0,Wunderground v.1.15,2013-07-06 02:43:00,
2013-07-05 19:48:00,85.9,65.7,29.56,SSE,151,1.0,2.0,51,0.00,,,0.00,0,Wunderground v.1.15,2013-07-06 02:48:00,
2013-07-05 19:53:00,85.5,65.9,29.56,SSE,153,1.0,1.0,52,0.00,,,0.00,0,Wunderground v.1.15,2013-07-06 02:53:00,
2013-07-05 19:59:00,85.0,65.4,29.57,SSE,153,1.0,1.0,52,0.00,,,0.00,0,Wunderground v.1.15,2013-07-06 02:59:00,
2013-07-05 20:01:00,84.8,65.8,29.57,SSE,153,0.0,6.0,53,0.00,,,0.00,0,Wunderground v.1.15,2013-07-06 03:01:00,
2013-07-05 20:08:00,84.3,65.8,29.57,SSE,153,0.0,6.0,54,0.00,,,0.00,0,Wunderground v.1.15,2013-07-06 03:08:00,
2013-07-05 20:13:00,83.9,64.9,29.57,SSE,153,0.0,1.0,53,0.00,,,0.00,0,Wunderground v.1.15,2013-07-06 03:13:00,
2013-07-05 20:19:00,83.4,65.0,29.58,SE,139,0.0,1.0,54,0.00,,,0.00,0,Wunderground v.1.15,2013-07-06 03:19:00,
2013-07-05 20:25:00,82.9,65.1,29.58,SE,135,0.0,1.0,55,0.00,,,0.00,0,Wunderground v.1.15,2013-07-06 03:25:00,
2013-07-05 20:30:00,82.5,64.7,29.58,SE,144,0.0,0.0,55,0.00,,,0.00,0,Wunderground v.1.15,2013-07-06 03:30:00,
2013-07-05 20:36:00,82.0,64.8,29.58,SE,124,0.0,1.0,56,0.00,,,0.00,0,Wunderground v.1.15,2013-07-06 03:36:00,
2013-07-05 20:42:00,81.4,64.7,29.58,SE,125,0.0,1.0,57,0.00,,,0.00,0,Wunderground v.1.15,2013-07-06 03:42:00,
2013-07-05 20:48:00,80.7,64.5,29.59,SE,143,0.0,2.0,58,0.00,,,0.00,0,Wunderground v.1.15,2013-07-06 03:48:00,
2013-07-05 20:54:00,80.3,64.2,29.59,ESE,120,0.0,1.0,58,0.00,,,0.00,0,Wunderground v.1.15,2013-07-06 03:54:00,
2013-07-05 21:00:00,80.0,64.4,29.59,SSE,151,2.0,2.0,59,0.00,,,0.00,0,Wunderground v.1.15,2013-07-06 04:00:00,
2013-07-05 21:01:00,79.9,64.3,29.59,SSE,155,2.0,3.0,59,0.00,,,0.00,0,Wunderground v.1.15,2013-07-06 04:01:00,
2013-07-05 21:02:00,79.8,64.2,29.59,SSE,150,1.0,3.0,59,0.00,,,0.00,0,Wunderground v.1.15,2013-07-06 04:02:00,
2013-07-05 21:04:00,79.7,64.1,29.59,SE,146,0.0,3.0,59,0.00,,,0.00,0,Wunderground v.1.15,2013-07-06 04:04:00,
2013-07-05 21:07:00,79.6,64.0,29.58,ESE,121,0.0,3.0,59,0.00,,,0.00,0,Wunderground v.1.15,2013-07-06 04:07:00,
2013-07-05 21:13:00,79.2,64.1,29.59,SE,138,0.0,1.0,60,0.00,,,0.00,0,Wunderground v.1.15,2013-07-06 04:13:00,
2013-07-05 21:14:00,79.2,64.1,29.59,ESE,122,1.0,1.0,60,0.00,,,0.00,0,Wunderground v.1.15,2013-07-06 04:14:00,
2013-07-05 21:19:00,78.9,63.8,29.59,ESE,113,1.0,1.0,60,0.00,,,0.00,0,Wunderground v.1.15,2013-07-06 04:19:00,
2013-07-05 21:25:00,78.7,63.6,29.59,SE,133,2.0,4.0,60,0.00,,,0.00,0,Wunderground v.1.15,2013-07-06 04:25:00,
2013-07-05 21:31:00,78.5,63.5,29.60,SE,137,0.0,1.0,60,0.00,,,0.00,0,Wunderground v.1.15,2013-07-06 04:31:00,
2013-07-05 21:36:00,78.2,63.6,29.60,SE,132,0.0,1.0,61,0.00,,,0.00,0,Wunderground v.1.15,2013-07-06 04:36:00,
2013-07-05 21:42:00,77.7,63.6,29.60,SE,132,0.0,1.0,62,0.00,,,0.00,0,Wunderground v.1.15,2013-07-06 04:42:00,
2013-07-05 21:48:00,77.5,63.9,29.61,ESE,112,1.0,2.0,63,0.00,,,0.00,0,Wunderground v.1.15,2013-07-06 04:48:00,
2013-07-05 21:53:00,77.3,63.7,29.61,SE,130,1.0,1.0,63,0.00,,,0.00,0,Wunderground v.1.15,2013-07-06 04:53:00,
2013-07-05 21:59:00,77.1,63.5,29.61,SE,129,1.0,3.0,63,0.00,,,0.00,0,Wunderground v.1.15,2013-07-06 04:59:00,
2013-07-05 22:07:00,76.8,64.1,29.61,SE,145,0.0,6.0,65,0.00,,,0.00,0,Wunderground v.1.15,2013-07-06 05:07:00,
2013-07-05 22:13:00,76.5,63.9,29.62,East,100,1.0,1.0,65,0.00,,,0.00,0,Wunderground v.1.15,2013-07-06 05:13:00,
2013-07-05 22:19:00,76.3,64.1,29.61,SE,124,0.0,2.0,66,0.00,,,0.00,0,Wunderground v.1.15,2013-07-06 05:19:00,
2013-07-05 22:25:00,76.0,63.8,29.62,ESE,123,1.0,3.0,66,0.00,,,0.00,0,Wunderground v.1.15,2013-07-06 05:25:00,
2013-07-05 22:31:00,75.7,64.4,29.62,ESE,120,1.0,1.0,68,0.00,,,0.00,0,Wunderground v.1.15,2013-07-06 05:31:00,
2013-07-05 22:37:00,75.4,64.5,29.62,ESE,122,0.0,4.0,69,0.00,,,0.00,0,Wunderground v.1.15,2013-07-06 05:37:00,
2013-07-05 22:43:00,75.2,64.7,29.62,ESE,123,1.0,3.0,70,0.00,,,0.00,0,Wunderground v.1.15,2013-07-06 05:43:00,
2013-07-05 22:49:00,75.0,65.0,29.62,SE,124,2.0,4.0,71,0.00,,,0.00,0,Wunderground v.1.15,2013-07-06 05:49:00,
2013-07-05 22:55:00,74.7,64.7,29.62,SE,143,0.0,3.0,71,0.00,,,0.00,0,Wunderground v.1.15,2013-07-06 05:55:00,
2013-07-05 23:01:00,74.3,64.3,29.62,ESE,122,1.0,4.0,71,0.00,,,0.00,0,Wunderground v.1.15,2013-07-06 06:01:00,
2013-07-05 23:08:00,74.0,64.4,29.62,ESE,113,2.0,6.0,72,0.00,,,0.00,0,Wunderground v.1.15,2013-07-06 06:08:00,
2013-07-05 23:14:00,73.8,64.2,29.63,SE,131,1.0,3.0,72,0.00,,,0.00,0,Wunderground v.1.15,2013-07-06 06:14:00,
2013-07-05 23:19:00,73.7,64.5,29.62,ESE,121,3.0,3.0,73,0.00,,,0.00,0,Wunderground v.1.15,2013-07-06 06:19:00,
2013-07-05 23:25:00,73.4,64.2,29.63,ESE,114,2.0,3.0,73,0.00,,,0.00,0,Wunderground v.1.15,2013-07-06 06:25:00,
2013-07-05 23:30:00,73.3,64.1,29.63,ESE,121,1.0,1.0,73,0.00,,,0.00,0,Wunderground v.1.15,2013-07-06 06:30:00,
2013-07-05 23:36:00,73.0,64.2,29.63,ESE,113,2.0,4.0,74,0.00,,,0.00,0,Wunderground v.1.15,2013-07-06 06:36:00,
2013-07-05 23:42:00,72.8,64.0,29.63,East,97,6.0,6.0,74,0.00,,,0.00,0,Wunderground v.1.15,2013-07-06 06:42:00,
2013-07-05 23:48:00,72.7,63.1,29.63,ESE,119,4.0,6.0,72,0.00,,,0.00,0,Wunderground v.1.15,2013-07-06 06:48:00,
2013-07-05 23:54:00,72.6,62.7,29.62,ESE,108,3.0,3.0,71,0.00,,,0.00,0,Wunderground v.1.15,2013-07-06 06:54:00,